timestamp,wind_dir_avg,wind_spd_avg,wind_spd_max_dir,wind_spd_gust,battery_voltage,lat,long
2022-06-18 00:04:00+00:00,164.0,3.86,165.0,4.49,13.29,47.59359,-54.27349
2022-06-18 00:14:00+00:00,183.0,3.94,183.0,4.39,12.65,47.59359,-54.27349
2022-06-18 00:24:00+00:00,225.0,4.7,228.0,5.34,12.65,47.59359,-54.27349
2022-06-18 00:34:00+00:00,230.0,4.88,235.0,5.38,12.65,47.59359,-54.27349
2022-06-18 00:44:00+00:00,224.0,6.15,224.0,6.82,12.65,47.59359,-54.27349
2022-06-18 00:54:00+00:00,239.0,4.55,237.0,5.01,12.65,47.59359,-54.27349
2022-06-18 01:04:00+00:00,231.0,5.66,229.0,6.18,12.65,47.59359,-54.27349
2022-06-18 01:14:00+00:00,209.0,6.21,213.0,7.34,12.41,47.59359,-54.27349
2022-06-18 01:24:00+00:00,219.0,4.97,217.0,5.52,12.41,47.59359,-54.27349
2022-06-18 01:34:00+00:00,223.0,4.54,221.0,5.37,12.41,47.59359,-54.27349
2022-06-18 01:44:00+00:00,200.0,4.23,202.0,4.47,12.41,47.59359,-54.27349
2022-06-18 01:54:00+00:00,197.0,4.81,202.0,5.12,12.41,47.59359,-54.27349
2022-06-18 02:04:00+00:00,213.0,3.5,218.0,4.24,12.41,47.59359,-54.27349
2022-06-18 02:14:01+00:00,203.0,4.8,204.0,5.77,12.41,47.59359,-54.27349
2022-06-18 02:24:01+00:00,205.0,5.48,207.0,6.29,12.41,47.59359,-54.27349
2022-06-18 02:34:01+00:00,192.0,4.7,200.0,5.24,12.41,47.59359,-54.27349
2022-06-18 02:44:01+00:00,195.0,4.27,194.0,4.96,12.41,47.59359,-54.27349
2022-06-18 02:54:01+00:00,200.0,5.35,210.0,5.94,12.41,47.59359,-54.27349
2022-06-18 03:04:01+00:00,198.0,4.29,197.0,4.74,12.41,47.59359,-54.27349
2022-06-18 03:14:00+00:00,215.0,4.29,219.0,5.28,12.41,47.59359,-54.27349
2022-06-18 03:24:00+00:00,194.0,5.82,208.0,6.47,12.41,47.59359,-54.27349
2022-06-18 03:34:00+00:00,206.0,5.91,215.0,6.54,12.41,47.59359,-54.27349
2022-06-18 03:44:00+00:00,207.0,6.4,215.0,7.18,12.41,47.59359,-54.27349
2022-06-18 03:54:00+00:00,207.0,5.04,211.0,5.71,12.41,47.59359,-54.27349
2022-06-18 04:04:00+00:00,203.0,4.8,214.0,5.39,12.41,47.59359,-54.27349
2022-06-18 04:14:00+00:00,199.0,5.04,210.0,5.78,12.41,47.59359,-54.27349
2022-06-18 04:24:00+00:00,201.0,4.67,205.0,5.09,12.41,47.59359,-54.27349
2022-06-18 04:34:00+00:00,205.0,5.04,211.0,5.62,12.41,47.59359,-54.27349
2022-06-18 04:44:00+00:00,202.0,4.85,220.0,6.46,12.41,47.59359,-54.27349
2022-06-18 04:54:00+00:00,216.0,6.26,224.0,7.32,12.41,47.59359,-54.27349
2022-06-18 05:04:00+00:00,211.0,5.53,223.0,6.57,12.41,47.59359,-54.27349
2022-06-18 05:14:00+00:00,184.0,5.53,200.0,5.97,12.33,47.59359,-54.27349
2022-06-18 05:24:00+00:00,222.0,7.18,225.0,7.9,12.33,47.59359,-54.27349
2022-06-18 05:34:00+00:00,217.0,6.3,224.0,7.23,12.33,47.59359,-54.27349
2022-06-18 05:44:00+00:00,226.0,6.45,230.0,7.58,12.33,47.59359,-54.27349
2022-06-18 05:54:00+00:00,228.0,6.9,229.0,7.69,12.33,47.59359,-54.27349
2022-06-18 06:04:00+00:00,219.0,5.93,226.0,7.03,12.33,47.59359,-54.27349
2022-06-18 06:14:01+00:00,192.0,3.35,230.0,4.61,12.33,47.59359,-54.27349
2022-06-18 06:24:01+00:00,226.0,7.0,228.0,7.47,12.33,47.59359,-54.27349
2022-06-18 06:34:01+00:00,232.0,6.92,231.0,7.55,12.33,47.59359,-54.27349
2022-06-18 06:44:01+00:00,225.0,5.88,232.0,7.56,12.33,47.59359,-54.27349
2022-06-18 06:54:01+00:00,215.0,5.73,225.0,6.71,12.33,47.59359,-54.27349
2022-06-18 07:04:01+00:00,216.0,6.24,224.0,7.64,12.33,47.59359,-54.27349
2022-06-18 07:14:00+00:00,219.0,7.04,227.0,8.07,12.25,47.59359,-54.27349
2022-06-18 07:24:00+00:00,203.0,5.26,223.0,6.82,12.25,47.59359,-54.27349
2022-06-18 07:34:00+00:00,213.0,4.83,225.0,6.32,12.25,47.59359,-54.27349
2022-06-18 07:44:00+00:00,221.0,6.02,229.0,7.44,12.25,47.59359,-54.27349
2022-06-18 07:54:00+00:00,213.0,4.34,220.0,5.01,12.25,47.59359,-54.27349
2022-06-18 08:04:00+00:00,210.0,4.46,218.0,5.25,12.25,47.59359,-54.27349
2022-06-18 08:14:00+00:00,217.0,4.21,217.0,4.64,12.33,47.59359,-54.27349
2022-06-18 08:24:00+00:00,194.0,4.13,197.0,4.5,12.33,47.59359,-54.27349
2022-06-18 08:34:00+00:00,206.0,4.4,215.0,4.89,12.33,47.59359,-54.27349
2022-06-18 08:44:00+00:00,214.0,4.65,215.0,5.09,12.33,47.59359,-54.27349
2022-06-18 08:54:00+00:00,210.0,4.82,208.0,5.39,12.33,47.59359,-54.27349
2022-06-18 09:04:00+00:00,222.0,4.8,224.0,5.19,12.33,47.59359,-54.27349
2022-06-18 09:14:00+00:00,218.0,4.55,228.0,5.38,12.81,47.59359,-54.27349
2022-06-18 09:24:00+00:00,217.0,4.46,219.0,4.96,12.81,47.59359,-54.27349
2022-06-18 09:34:00+00:00,216.0,5.09,216.0,5.5,12.81,47.59359,-54.27349
2022-06-18 09:44:00+00:00,222.0,4.62,228.0,5.63,12.81,47.59359,-54.27349
2022-06-18 09:54:00+00:00,230.0,4.22,229.0,5.05,12.81,47.59359,-54.27349
2022-06-18 10:04:00+00:00,215.0,5.52,215.0,5.97,12.81,47.59359,-54.27349
2022-06-18 10:14:00+00:00,206.0,5.5,205.0,6.21,13.29,47.59359,-54.27349
2022-06-18 10:24:00+00:00,210.0,6.96,210.0,7.79,13.29,47.59359,-54.27349
2022-06-18 10:34:00+00:00,226.0,4.45,217.0,5.24,13.29,47.59359,-54.27349
2022-06-18 10:44:00+00:00,226.0,6.38,232.0,7.89,13.29,47.59359,-54.27349
2022-06-18 10:54:00+00:00,215.0,6.35,216.0,7.02,13.29,47.59359,-54.27349
2022-06-18 11:04:00+00:00,225.0,5.92,233.0,7.27,13.29,47.59359,-54.27349
2022-06-18 11:14:00+00:00,213.0,5.92,215.0,6.44,13.53,47.59359,-54.27349
2022-06-18 11:24:00+00:00,215.0,6.74,216.0,7.47,13.53,47.59359,-54.27349
2022-06-18 11:34:00+00:00,220.0,5.14,217.0,6.21,13.53,47.59359,-54.27349
2022-06-18 11:44:00+00:00,215.0,5.78,213.0,6.55,13.53,47.59359,-54.27349
2022-06-18 11:54:00+00:00,221.0,5.39,231.0,7.01,13.53,47.59359,-54.27349
2022-06-18 12:04:00+00:00,203.0,5.84,210.0,6.71,13.53,47.59359,-54.27349
2022-06-18 12:14:00+00:00,209.0,6.71,208.0,8.09,13.6,47.59359,-54.27349
2022-06-18 12:24:00+00:00,225.0,7.43,241.0,10.18,13.6,47.59359,-54.27349
2022-06-18 12:34:00+00:00,221.0,9.31,227.0,11.76,13.6,47.59359,-54.27349
2022-06-18 12:44:00+00:00,206.0,8.6,217.0,10.09,13.6,47.59359,-54.27349
2022-06-18 12:54:00+00:00,201.0,9.76,201.0,10.84,13.6,47.59359,-54.27349
2022-06-18 13:04:00+00:00,207.0,10.67,211.0,12.01,13.6,47.59359,-54.27349
2022-06-18 13:14:00+00:00,212.0,10.41,214.0,12.03,13.76,47.59359,-54.27349
2022-06-18 13:24:00+00:00,211.0,9.83,221.0,13.16,13.76,47.59359,-54.27349
2022-06-18 13:34:00+00:00,214.0,12.63,218.0,14.7,13.76,47.59359,-54.27349
2022-06-18 13:44:00+00:00,212.0,11.83,219.0,14.01,13.76,47.59359,-54.27349
2022-06-18 13:54:00+00:00,212.0,11.2,218.0,13.29,13.76,47.59359,-54.27349
2022-06-18 14:04:00+00:00,209.0,13.5,216.0,15.44,13.76,47.59359,-54.27349
2022-06-18 14:14:00+00:00,200.0,10.88,200.0,12.16,13.6,47.59359,-54.27349
2022-06-18 14:24:00+00:00,204.0,11.37,219.0,13.55,13.6,47.59359,-54.27349
2022-06-18 14:34:00+00:00,200.0,14.02,210.0,16.52,13.6,47.59359,-54.27349
2022-06-18 14:44:00+00:00,201.0,12.8,211.0,14.9,13.6,47.59359,-54.27349
2022-06-18 14:54:00+00:00,216.0,12.82,216.0,15.0,13.6,47.59359,-54.27349
2022-06-18 15:04:00+00:00,211.0,15.42,211.0,18.12,13.6,47.59359,-54.27349
2022-06-18 15:14:00+00:00,220.0,13.35,218.0,15.12,13.68,47.59359,-54.27349
2022-06-18 15:24:00+00:00,215.0,14.21,217.0,15.93,13.68,47.59359,-54.27349
2022-06-18 15:34:00+00:00,218.0,13.88,218.0,15.58,13.68,47.59359,-54.27349
2022-06-18 15:44:00+00:00,214.0,15.33,210.0,17.82,13.68,47.59359,-54.27349
2022-06-18 15:54:00+00:00,217.0,13.82,218.0,15.52,13.68,47.59359,-54.27349
2022-06-18 16:04:00+00:00,215.0,14.96,214.0,16.95,13.68,47.59359,-54.27349
2022-06-18 16:14:00+00:00,214.0,14.83,213.0,16.94,13.68,47.59359,-54.27349
2022-06-18 16:24:00+00:00,221.0,13.19,221.0,14.7,13.68,47.59359,-54.27349
2022-06-18 16:34:00+00:00,213.0,15.14,214.0,17.36,13.68,47.59359,-54.27349
2022-06-18 16:44:00+00:00,200.0,14.82,209.0,19.53,13.68,47.59359,-54.27349
2022-06-18 16:54:00+00:00,198.0,13.9,200.0,16.41,13.68,47.59359,-54.27349
2022-06-18 17:04:00+00:00,203.0,14.77,211.0,16.77,13.68,47.59359,-54.27349
2022-06-18 17:14:01+00:00,203.0,15.36,209.0,18.34,13.68,47.59359,-54.27349
2022-06-18 17:24:01+00:00,207.0,18.66,203.0,23.17,13.68,47.59359,-54.27349
2022-06-18 17:34:01+00:00,207.0,18.68,203.0,22.44,13.68,47.59359,-54.27349
2022-06-18 17:44:01+00:00,210.0,16.92,209.0,19.71,13.68,47.59359,-54.27349
2022-06-18 17:54:01+00:00,209.0,16.68,206.0,19.03,13.68,47.59359,-54.27349
2022-06-18 18:04:01+00:00,213.0,15.44,208.0,17.74,13.68,47.59359,-54.27349
2022-06-18 18:14:01+00:00,216.0,14.6,213.0,16.89,13.6,47.59359,-54.27349
2022-06-18 18:24:01+00:00,213.0,14.82,208.0,16.53,13.6,47.59359,-54.27349
2022-06-18 18:34:01+00:00,216.0,14.79,215.0,16.45,13.6,47.59359,-54.27349
2022-06-18 18:44:01+00:00,214.0,14.26,211.0,16.17,13.6,47.59359,-54.27349
2022-06-18 18:54:01+00:00,218.0,14.82,218.0,16.41,13.6,47.59359,-54.27349
2022-06-18 19:04:01+00:00,214.0,15.02,211.0,18.6,13.6,47.59359,-54.27349
2022-06-18 19:14:00+00:00,212.0,15.11,210.0,17.35,13.6,47.59359,-54.27349
2022-06-18 19:24:00+00:00,212.0,15.42,209.0,17.81,13.6,47.59359,-54.27349
2022-06-18 19:34:00+00:00,212.0,15.38,207.0,17.22,13.6,47.59359,-54.27349
2022-06-18 19:44:00+00:00,214.0,14.77,214.0,17.1,13.6,47.59359,-54.27349
2022-06-18 19:54:00+00:00,219.0,12.98,214.0,15.09,13.6,47.59359,-54.27349
2022-06-18 20:04:00+00:00,214.0,15.11,208.0,16.9,13.6,47.59359,-54.27349
2022-06-18 20:14:01+00:00,219.0,14.34,213.0,16.41,13.29,47.59359,-54.27349
2022-06-18 20:24:01+00:00,210.0,16.7,209.0,18.84,13.29,47.59359,-54.27349
2022-06-18 20:34:01+00:00,210.0,17.38,206.0,19.74,13.29,47.59359,-54.27349
2022-06-18 20:44:01+00:00,209.0,17.44,204.0,21.31,13.29,47.59359,-54.27349
2022-06-18 20:54:01+00:00,213.0,15.33,211.0,17.17,13.29,47.59359,-54.27349
2022-06-18 21:04:01+00:00,218.0,14.15,216.0,16.5,13.29,47.59359,-54.27349
2022-06-18 21:14:00+00:00,216.0,15.3,213.0,17.42,13.21,47.59359,-54.27349
2022-06-18 21:24:00+00:00,219.0,13.94,217.0,16.1,13.21,47.59359,-54.27349
2022-06-18 21:34:00+00:00,215.0,14.19,215.0,16.25,13.21,47.59359,-54.27349
2022-06-18 21:44:00+00:00,215.0,13.99,214.0,16.21,13.21,47.59359,-54.27349
2022-06-18 21:54:00+00:00,209.0,14.8,208.0,17.71,13.21,47.59359,-54.27349
2022-06-18 22:04:00+00:00,200.0,16.16,197.0,19.24,13.21,47.59359,-54.27349
2022-06-18 22:14:01+00:00,201.0,14.88,208.0,18.36,12.57,47.59359,-54.27349
2022-06-18 22:24:01+00:00,202.0,15.73,206.0,19.54,12.57,47.59359,-54.27349
2022-06-18 22:34:01+00:00,195.0,14.64,206.0,17.71,12.57,47.59359,-54.27349
2022-06-18 22:44:01+00:00,203.0,15.32,209.0,18.78,12.57,47.59359,-54.27349
2022-06-18 22:54:01+00:00,213.0,15.18,205.0,17.54,12.57,47.59359,-54.27349
2022-06-18 23:04:01+00:00,216.0,14.12,208.0,17.32,12.57,47.59359,-54.27349
2022-06-18 23:14:00+00:00,215.0,14.94,205.0,18.05,12.41,47.59359,-54.27349
2022-06-18 23:24:00+00:00,215.0,14.49,217.0,16.45,12.41,47.59359,-54.27349
2022-06-18 23:34:00+00:00,215.0,14.74,214.0,16.65,12.41,47.59359,-54.27349
2022-06-18 23:44:00+00:00,208.0,14.34,210.0,17.71,12.41,47.59359,-54.27349
2022-06-18 23:54:00+00:00,219.0,12.52,217.0,14.21,12.41,47.59359,-54.27349
